This is the latest recevied weather packets stored in our database for station/object KE6LRO. If no packets are shown the sender has not sent any weather packets the latest 10 day(s).
| Time | Temp. | Humidity | Pressure | Rain* | Wind** | Luminosity | Snow |
|---|---|---|---|---|---|---|---|
| 1777765778 | 23.33° C | 25% | 1018.1 hPa | 0 mm | - | 279 W/m² | - |
| 1777765474 | 23.89° C | 25% | 1018.2 hPa | 0 mm | - | 307 W/m² | - |
| 1777765172 | 23.33° C | 24% | 1018.3 hPa | 0 mm | - | 311 W/m² | - |
| 1777764866 | 22.22° C | 23% | 1018.4 hPa | 0 mm | - | 329 W/m² | - |
| 1777764564 | 20.56° C | 30% | 1018.3 hPa | 0 mm | - | 329 W/m² | - |
| 1777764260 | 19.44° C | 36% | 1018.4 hPa | 0 mm | - | 335 W/m² | - |
| 1777763958 | 19.44° C | 39% | 1018.5 hPa | 0 mm | - | 84 W/m² | - |
| 1777763655 | 21.11° C | 41% | 1018.6 hPa | 0 mm | - | 84 W/m² | - |
| 1777763353 | 21.11° C | 26% | 1018.7 hPa | 0 mm | - | 229 W/m² | - |
| 1777763051 | 21.67° C | 25% | 1018.7 hPa | 0 mm | - | 81 W/m² | - |
| 1777762748 | 22.22° C | 24% | 1018.7 hPa | 0 mm | - | 94 W/m² | - |
| 1777762444 | 21.67° C | 26% | 1018.7 hPa | 0 mm | - | 135 W/m² | - |
| 1777762141 | 22.22° C | 27% | 1018.9 hPa | 0 mm | - | 101 W/m² | - |
| 1777761837 | 22.22° C | 25% | 1018.8 hPa | 0 mm | - | 198 W/m² | - |
| 1777761535 | 23.33° C | 25% | 1019.1 hPa | 0 mm | - | 371 W/m² | - |
| 1777761232 | 23.33° C | 25% | 1019.1 hPa | 0 mm | - | 128 W/m² | - |
| 1777760930 | 23.33° C | 24% | 1018.9 hPa | 0 mm | - | 462 W/m² | - |
| 1777760628 | 22.78° C | 22% | 1019.3 hPa | 0 mm | - | 503 W/m² | - |
| 1777760323 | 23.33° C | 25% | 1019.1 hPa | 0 mm | - | 371 W/m² | - |
| 1777760019 | 23.33° C | 23% | 1019.2 hPa | 0 mm | - | 513 W/m² | - |
| 1777759717 | 23.33° C | 24% | 1019.3 hPa | 0 mm | - | 539 W/m² | - |
| 1777759412 | 22.78° C | 23% | 1019.4 hPa | 0 mm | - | 508 W/m² | - |
| 1777759109 | 23.33° C | 25% | 1019.3 hPa | 0 mm | - | 538 W/m² | - |
| 1777758807 | 23.33° C | 24% | 1019.5 hPa | 0 mm | - | 517 W/m² | - |
| 1777758504 | 23.33° C | 24% | 1019.6 hPa | 0 mm | - | 467 W/m² | - |
* Rain latest hour (hover to see other rain measurements)
** Current wind speed in m/s (hover to see current wind gust speed)